User: anonymous   Login
Location: Karlsruhe
(49.0131°N, 8.3874°E)
Time: 23:03:50
(UTC+01:00)
Language:

Hubble Space Telescope - Orbit

View from above orbital plane
View from above orbital plane
View from above satellite
View from above satellite

Ground track
Ground track

The orbit data is extracted from the following two-line orbital elements,

1 20580U 90037B   18055.27745192 +.00000499 +00000-0 +19652-4 0  9999
2 20580 028.4693 141.4742 0002790 010.8119 025.8199 15.08984678328317
Epoch (UTC): 24 February 2018 06:39:31
Eccentricity: 0.0002790
inclination: 28.4693°
perigee height: 537 km
apogee height: 541 km
right ascension of ascending node: 141.4742°
argument of perigee: 10.8119°
revolutions per day: 15.08984678
mean anomaly at epoch: 25.8199°
orbit number at epoch: 32831

The dashed part of the orbit path shows where the satellite is in the earth's shadow,  

DLR